Wind_Speed
94 91 86 82 79 75 70 66 64 59 55 52 47 44 43 40 40 36 37 37 39 40 41 43 46 49 51 52 56 56 57 60 49 43 43 42 38 33 29 28 24 21 17
96 94 90 84 79 76 72 68 65 61 58 54 50 46 44 41 41 37 38 39 40 42 41 43 45 48 50 50 52 54 55 53 51 45 43 40 38 33 27 21 16 15 17
98 95 91 85 80 77 74 71 67 63 60 56 52 50 46 43 41 38 39 41 41 42 43 44 45 47 49 49 51 53 56 55 49 43 39 37 35 29 23 18 15 17 16
100 96 92 86 82 79 75 73 69 66 62 59 55 52 47 44 42 40 43 43 43 42 44 45 45 46 47 48 50 52 56 52 51 38 41 34 30 27 23 19 18 18 20
98 98 93 89 86 81 76 73 70 67 64 61 57 54 50 47 46 42 44 44 45 45 45 45 45 46 46 47 50 52 53 49 46 37 38 31 29 26 24 20 18 18 19
98 98 96 93 87 82 78 75 72 69 66 63 60 57 54 51 49 47 47 48 48 47 45 46 46 46 45 46 49 50 50 46 41 34 33 30 27 26 26 26 23 22 23
100 96 95 93 89 87 82 78 74 72 70 67 64 61 58 55 53 52 51 51 51 49 46 48 46 45 45 44 47 49 46 46 41 35 30 28 26 26 27 26 26 27 28
101 97 95 92 90 88 85 81 78 74 72 70 68 65 62 58 57 54 54 54 52 50 48 47 48 45 44 45 46 48 46 44 41 34 30 28 27 27 28 28 27 28 29
98 98 94 91 91 89 85 83 81 79 76 73 71 68 64 60 58 55 56 54 53 50 50 49 49 45 43 46 45 47 45 49 40 35 33 29 29 27 27 29 28 27 27
94 97 96 92 89 88 87 85 84 82 79 77 73 69 65 62 59 58 55 55 54 50 52 51 49 45 45 46 47 48 49 48 41 37 32 30 30 29 27 27 26 29 31
92 97 98 94 91 87 85 85 84 82 79 76 73 69 67 65 62 59 56 55 55 54 55 51 47 48 46 48 50 51 52 49 45 38 33 31 32 31 29 29 31 33 36
92 90 96 97 92 87 84 82 82 81 79 76 73 70 67 65 63 61 59 58 57 56 55 49 50 50 49 51 53 53 54 51 40 39 36 34 33 33 33 32 33 34 36
94 90 90 94 93 90 86 82 78 76 74 73 72 71 68 67 65 62 58 56 55 56 54 50 52 52 53 53 55 58 58 46 40 39 40 36 34 36 36 35 36 38 39
95 91 88 89 92 91 88 85 80 76 73 69 67 65 65 63 62 59 58 60 60 57 55 53 52 55 55 56 58 57 51 41 39 41 41 39 37 37 36 38 39 41 41
99 92 87 86 88 90 88 86 83 80 77 74 70 67 63 61 62 61 59 59 58 56 55 56 57 58 59 57 57 53 48 43 40 42 43 42 40 39 39 40 42 43 44
97 95 89 85 84 87 90 88 84 81 81 79 76 73 70 68 64 62 60 59 60 61 62 61 61 63 59 59 56 52 48 45 42 43 44 43 42 41 41 43 45 44 45
98 94 92 87 83 81 82 88 90 86 83 80 79 77 76 75 71 70 68 66 67 66 65 66 64 58 60 55 52 49 49 47 45 44 45 45 45 44 44 45 47 48 47
105 101 96 93 90 85 82 78 81 86 88 87 85 82 80 79 77 75 74 72 69 67 64 59 59 58 54 51 48 51 49 46 43 43 46 47 47 47 48 50 51 52 53
106 105 101 98 95 93 89 83 79 75 75 79 84 86 87 86 85 84 80 75 69 65 61 59 57 53 50 48 49 51 50 46 43 43 47 48 48 50 51 53 54 54 55
106 105 104 101 97 94 93 90 86 82 79 76 71 70 69 67 66 67 66 63 61 59 57 55 52 50 48 45 46 48 50 47 45 45 46 47 49 52 54 55 56 59 60
112 108 107 105 101 97 93 92 90 86 81 77 73 70 64 62 61 61 60 61 60 60 57 53 51 49 47 47 45 46 51 51 50 49 46 47 51 55 57 57 57 57 59
111 110 107 106 105 102 98 94 91 89 86 83 79 75 72 69 66 65 65 66 66 64 61 57 55 53 51 51 49 48 50 55 56 53 51 50 51 55 58 59 60 61 63
112 109 107 106 106 105 104 100 95 91 89 85 83 81 79 78 77 73 70 70 70 68 65 63 61 59 56 56 52 50 50 57 58 55 55 56 55 57 60 63 64 66 67
115 113 111 106 104 105 104 103 101 99 96 92 89 86 85 83 81 79 77 75 74 73 71 71 70 67 65 60 61 57 55 60 62 61 62 64 65 65 66 67 68 69 71
123 120 117 112 109 105 105 105 103 102 102 100 96 93 91 89 88 86 83 81 80 80 77 75 74 74 71 70 67 62 63 63 64 66 66 66 67 68 69 71 72 73 75
128 124 121 118 116 113 108 104 104 104 102 99 98 98 97 96 93 90 89 87 86 84 83 80 80 78 76 76 75 71 68 68 71 70 71 70 71 73 75 77 78 77 76
Wind_Direction
226 227 227 229 231 233 236 239 242 244 245 248 251 256 263 270 273 275 281 290 296 306 315 318 323 327 329 335 341 346 350 357 351 352 352 351 348 343 341 338 330 329 344
224 227 227 227 230 232 234 237 239 240 243 247 250 254 259 265 270 273 278 284 295 300 310 315 321 324 326 331 337 340 347 349 351 347 348 348 344 341 339 339 341 348 355
224 227 229 228 229 231 232 234 236 238 241 243 247 251 257 262 267 270 274 282 287 297 305 310 318 320 322 326 333 336 343 347 346 341 344 345 340 342 345 347 350 346 346
224 226 228 228 229 230 231 233 235 237 240 243 245 249 253 258 262 265 271 278 286 293 298 305 313 317 318 322 329 332 340 343 343 335 340 343 343 340 340 342 344 336 334
225 226 227 228 230 231 232 234 235 237 239 242 246 248 251 255 259 263 268 275 281 286 294 301 310 312 314 319 324 328 335 338 338 330 336 341 344 342 333 327 322 325 328
223 226 227 228 229 231 232 233 236 237 239 242 244 247 250 253 257 261 266 272 277 284 292 299 305 308 309 315 320 325 330 332 327 321 326 332 336 341 337 331 323 322 322
221 224 226 228 229 230 231 233 236 238 239 241 243 246 250 253 256 260 265 271 277 284 289 296 300 303 304 310 315 320 322 326 316 313 315 323 332 338 340 336 332 330 331
221 222 226 228 229 231 232 233 235 237 239 242 244 246 250 253 256 260 264 269 274 281 286 292 294 298 299 304 310 315 317 317 311 305 305 311 319 331 335 337 336 338 341
221 222 224 227 229 230 232 233 235 237 240 242 244 246 250 252 257 260 264 270 275 279 283 286 289 292 293 299 306 309 311 315 302 293 297 302 308 321 332 335 339 342 351
220 220 223 225 227 230 231 233 235 237 239 242 244 247 251 254 257 261 265 269 272 274 278 281 284 286 291 297 302 304 306 309 300 285 291 296 301 310 324 329 334 341 347
219 219 220 223 226 228 230 232 235 237 240 243 245 248 250 253 256 259 261 264 267 270 273 275 280 284 289 294 299 300 303 302 295 277 280 290 296 305 312 320 323 329 335
218 220 221 221 224 227 229 231 234 236 239 242 245 247 249 252 255 257 259 261 262 264 267 272 277 281 287 293 296 294 297 298 283 270 272 280 289 298 305 311 317 323 330
217 219 221 222 222 225 227 229 231 234 237 239 242 244 245 247 249 250 251 254 260 264 268 271 272 278 286 290 291 292 293 290 271 266 267 272 282 290 298 305 311 315 321
216 218 220 222 222 223 224 227 229 231 233 235 238 239 242 243 246 248 250 253 256 260 265 267 273 280 283 285 286 285 284 275 265 263 259 267 274 283 292 299 305 310 314
217 216 218 221 223 223 224 225 226 228 230 231 232 234 236 239 240 242 245 251 256 260 263 267 272 274 279 277 276 275 273 268 264 261 257 260 269 277 285 291 297 305 310
217 216 217 219 222 224 224 224 226 228 229 230 232 234 236 238 241 246 248 251 254 256 261 266 268 274 270 272 267 268 268 270 269 263 256 257 263 271 278 285 293 299 305
216 216 217 218 219 221 224 225 226 227 229 232 235 236 238 241 243 244 246 249 254 258 262 265 267 263 268 263 263 266 270 274 277 266 258 256 261 268 276 281 287 293 299
218 218 218 221 221 222 223 224 226 228 230 232 233 234 236 238 241 243 247 251 255 258 258 253 258 260 258 259 265 267 271 275 278 272 259 256 259 267 274 279 284 290 295
218 219 219 221 223 224 224 225 227 226 228 231 234 236 238 240 243 247 250 251 250 248 248 249 250 252 254 259 262 263 267 272 274 272 263 258 259 264 270 275 280 285 291
218 220 220 219 222 224 226 226 226 228 228 231 231 232 235 237 238 239 238 237 236 239 242 247 251 252 255 259 266 266 268 271 269 267 263 259 258 263 269 274 279 282 288
217 217 219 219 220 222 225 226 226 226 228 229 232 234 234 234 232 232 233 234 236 238 244 253 252 253 255 259 262 265 264 266 266 266 266 264 260 262 268 275 280 284 288
219 219 218 219 220 220 223 224 225 227 227 228 230 230 231 233 231 231 233 235 237 238 242 245 247 251 254 257 260 265 262 261 264 266 269 269 268 267 270 275 280 283 286
219 222 222 221 221 222 223 224 225 226 227 227 228 230 231 231 231 232 235 238 239 241 242 242 244 248 252 256 258 261 259 259 262 264 267 268 270 270 270 273 277 281 285
219 220 223 223 223 223 224 225 226 227 227 227 228 230 231 232 233 233 237 240 241 241 240 242 243 245 247 248 250 253 256 256 257 261 263 265 268 271 273 275 277 280 284
219 220 222 223 224 224 224 225 226 227 228 229 230 230 231 231 233 235 238 241 242 242 242 243 244 246 248 250 250 249 255 255 258 260 261 263 266 269 272 274 277 279 281
218 221 222 222 224 226 226 225 225 227 228 229 230 231 232 233 234 235 238 239 239 240 243 244 245 246 249 252 252 252 251 256 258 260 264 266 268 269 271 272 275 279 283
Height
10586 10598 10612 10625 10635 10643 10650 10657 10664 10672 10676 10681 10685 10688 10690 10693 10694 10694 10693 10693 10693 10690 10688 10684 10680 10676 10671 10665 10658 10651 10645 10639 10632 10629 10624 10618 10613 10610 10605 10600 10594 10590 10586
10571 10579 10594 10609 10620 10630 10639 10644 10652 10659 10664 10671 10675 10680 10682 10685 10686 10686 10685 10685 10685 10684 10682 10679 10676 10671 10666 10661 10655 10648 10641 10638 10633 10626 10621 10617 10611 10606 10602 10597 10594 10589 10585
10557 10566 10579 10599 10607 10616 10624 10630 10638 10647 10652 10659 10664 10669 10673 10676 10677 10678 10677 10677 10678 10677 10675 10673 10671 10667 10662 10657 10651 10646 10641 10635 10629 10625 10619 10615 10609 10604 10600 10596 10592 10588 10584
10540 10554 10564 10583 10591 10600 10608 10617 10626 10634 10641 10647 10652 10659 10664 10666 10668 10670 10669 10670 10670 10670 10668 10667 10666 10663 10659 10654 10649 10643 10638 10632 10627 10622 10617 10612 10608 10604 10600 10597 10593 10588 10584
10525 10538 10551 10564 10573 10585 10597 10605 10613 10622 10629 10635 10641 10648 10653 10656 10658 10662 10661 10662 10663 10663 10662 10661 10659 10658 10654 10650 10645 10640 10634 10630 10626 10621 10617 10612 10608 10605 10601 10597 10592 10587 10582
10510 10520 10533 10546 10560 10572 10582 10592 10600 10609 10617 10623 10629 10635 10641 10646 10649 10652 10653 10653 10654 10655 10654 10654 10653 10651 10648 10645 10640 10635 10631 10627 10624 10621 10617 10613 10609 10605 10601 10596 10591 10586 10582
10493 10504 10516 10529 10546 10556 10567 10578 10587 10596 10603 10609 10616 10622 10628 10634 10639 10642 10643 10644 10645 10646 10647 10646 10647 10645 10642 10640 10636 10632 10628 10624 10621 10619 10616 10612 10608 10604 10600 10596 10591 10586 10581
10480 10492 10502 10515 10529 10541 10554 10565 10573 10582 10589 10596 10603 10610 10616 10623 10626 10631 10633 10635 10637 10638 10639 10639 10639 10639 10637 10634 10632 10628 10623 10620 10617 10615 10613 10610 10606 10602 10598 10594 10589 10584 10579
10465 10479 10489 10501 10513 10526 10539 10550 10559 10566 10575 10583 10589 10597 10604 10611 10615 10620 10623 10624 10627 10628 10629 10629 10629 10631 10630 10627 10626 10623 10619 10616 10612 10610 10609 10606 10603 10600 10595 10590 10586 10581 10577
10448 10463 10472 10484 10497 10509 10522 10533 10541 10549 10557 10567 10576 10584 10592 10598 10604 10608 10612 10613 10614 10617 10619 10619 10620 10621 10621 10620 10618 10616 10613 10608 10606 10604 10603 10601 10598 10595 10592 10588 10583 10579 10574
10427 10442 10454 10468 10479 10492 10505 10516 10526 10535 10544 10553 10563 10572 10579 10585 10590 10595 10599 10601 10603 10606 10607 10609 10609 10610 10611 10610 10609 10607 10604 10601 10599 10597 10596 10594 10593 10590 10587 10584 10580 10575 10571
10412 10426 10439 10450 10465 10480 10491 10500 10510 10520 10530 10540 10548 10556 10565 10571 10576 10581 10585 10588 10591 10594 10595 10598 10598 10599 10601 10601 10599 10596 10595 10593 10590 10590 10589 10588 10586 10585 10582 10578 10575 10571 10567
10395 10409 10421 10436 10451 10463 10474 10485 10496 10506 10516 10525 10533 10541 10549 10555 10560 10566 10570 10574 10577 10580 10583 10586 10587 10588 10589 10589 10588 10585 10583 10581 10581 10581 10581 10580 10579 10578 10576 10572 10569 10565 10561
10378 10392 10405 10419 10432 10444 10456 10467 10480 10491 10500 10509 10517 10525 10532 10539 10545 10551 10555 10560 10563 10568 10571 10574 10576 10577 10577 10577 10575 10572 10571 10569 10569 10570 10571 10571 10571 10570 10568 10565 10562 10558 10555
10360 10375 10389 10402 10414 10427 10439 10451 10461 10471 10480 10488 10496 10505 10515 10522 10526 10533 10540 10546 10551 10557 10560 10561 10563 10563 10564 10563 10560 10559 10558 10557 10558 10559 10560 10561 10562 10561 10560 10558 10555 10552 10548
10342 10360 10373 10385 10397 10409 10421 10432 10443 10453 10463 10472 10482 10491 10500 10505 10515 10522 10529 10533 10537 10541 10544 10546 10547 10549 10548 10548 10546 10546 10546 10546 10548 10548 10549 10550 10551 10551 10551 10549 10546 10544 10541
10326 10343 10356 10368 10380 10391 10402 10414 10426 10436 10447 10457 10466 10474 10483 10489 10498 10505 10511 10517 10521 10525 10528 10529 10531 10532 10532 10534 10534 10534 10534 10536 10536 10536 10537 10538 10540 10541 10540 10539 10537 10535 10532
10307 10324 10338 10350 10362 10374 10385 10396 10407 10418 10429 10438 10446 10454 10462 10470 10480 10486 10494 10502 10506 10508 10509 10511 10514 10515 10518 10521 10523 10523 10523 10524 10524 10525 10526 10526 10529 10530 10530 10528 10526 10524 10522
10284 10301 10318 10331 10343 10356 10367 10379 10390 10400 10410 10420 10428 10436 10445 10454 10464 10471 10480 10485 10487 10489 10490 10493 10497 10502 10506 10509 10510 10511 10511 10511 10512 10513 10514 10515 10517 10518 10517 10516 10515 10513 10511
10263 10279 10295 10311 10324 10337 10349 10361 10373 10383 10393 10402 10410 10417 10428 10439 10448 10452 10458 10462 10466 10469 10474 10479 10485 10491 10494 10497 10498 10499 10499 10499 10499 10499 10501 10503 10504 10504 10504 10503 10503 10501 10499
10239 10256 10272 10288 10304 10317 10329 10342 10354 10366 10376 10386 10394 10404 10414 10422 10429 10435 10441 10446 10450 10454 10460 10466 10472 10477 10481 10484 10486 10487 10486 10485 10485 10485 10487 10489 10490 10490 10490 10490 10490 10488 10486
10220 10236 10252 10267 10282 10296 10309 10321 10333 10346 10357 10367 10377 10387 10396 10403 10411 10417 10423 10428 10433 10437 10445 10451 10457 10461 10466 10470 10473 10475 10473 10471 10470 10472 10474 10476 10476 10476 10476 10476 10475 10474 10473
10202 10216 10232 10248 10263 10276 10288 10301 10313 10325 10336 10347 10358 10367 10376 10384 10391 10398 10404 10410 10416 10422 10428 10435 10439 10444 10448 10453 10456 10458 10459 10456 10456 10460 10461 10461 10461 10461 10461 10461 10461 10460 10458
10182 10196 10210 10224 10240 10255 10267 10279 10292 10305 10315 10326 10336 10346 10355 10364 10372 10379 10385 10392 10398 10402 10408 10414 10419 10424 10430 10434 10438 10441 10442 10441 10441 10444 10446 10446 10446 10446 10447 10446 10446 10445 10443
10157 10171 10186 10201 10214 10227 10242 10256 10268 10280 10291 10302 10313 10323 10333 10342 10351 10358 10365 10372 10378 10383 10388 10394 10398 10403 10409 10415 10419 10423 10425 10425 10425 10426 10428 10430 10431 10431 10431 10431 10430 10430 10428
10132 10147 10161 10177 10190 10201 10215 10229 10242 10255 10266 10277 10289 10300 10310 10319 10328 10336 10342 10349 10355 10361 10367 10373 10377 10382 10388 10393 10398 10404 10406 10407 10407 10410 10411 10413 10414 10413 10413 10413 10413 10414 10413